Theta_e
345 345 345 345 347 345 346 347 345 346 348 346 346 345 345 343 343 346 346 339 334 338 342 341 341 345 344 344 346 349 349 348 346 347 347 344 341 341 344 345 344 344
346 345 344 344 344 345 346 347 346 345 345 345 345 345 345 344 343 344 346 342 335 337 343 344 342 342 343 343 343 343 345 346 346 345 346 348 347 345 346 345 343 343
346 345 344 344 345 345 345 346 345 345 344 343 343 343 346 347 344 344 346 344 336 336 341 343 339 335 337 338 338 338 341 344 345 344 344 350 351 349 348 345 343 343
346 345 344 344 344 345 346 345 345 345 344 344 343 343 346 347 345 345 347 345 338 337 340 339 335 333 334 335 336 339 341 341 341 342 344 349 353 351 348 345 344 343
346 345 345 345 345 346 346 346 345 346 345 344 344 344 345 347 347 346 347 348 343 340 341 338 334 335 336 335 336 338 341 341 340 341 343 348 352 351 346 345 345 344
346 346 345 346 346 345 345 345 344 345 345 346 346 346 347 347 348 347 347 348 346 344 345 342 336 336 337 337 336 337 341 345 344 344 343 344 348 348 346 345 345 345
347 346 346 347 347 346 345 345 344 345 346 346 347 348 348 347 346 346 346 347 347 345 346 346 341 338 340 342 340 338 341 346 349 350 348 345 344 343 343 344 345 346
347 348 346 346 348 348 346 345 345 346 346 347 347 347 347 347 346 347 346 348 347 342 341 346 345 339 342 347 346 342 340 343 349 351 350 350 346 341 339 340 341 345
346 346 345 346 348 347 346 345 345 346 346 346 346 346 346 347 347 347 347 347 347 342 340 345 346 341 341 347 349 347 343 343 348 349 349 349 347 342 340 338 338 341
345 346 345 346 349 348 345 345 345 346 346 346 346 345 345 347 347 347 346 345 346 344 341 345 349 345 342 344 349 350 347 344 346 349 349 347 345 343 341 340 339 340
346 346 347 346 348 348 346 345 347 347 347 347 347 345 345 346 346 346 346 345 346 344 340 342 348 347 344 344 346 349 349 347 345 347 349 348 347 345 344 342 340 340
347 347 347 346 346 347 345 346 347 348 347 348 348 345 345 346 346 346 346 345 345 344 341 342 344 346 346 344 344 346 348 348 346 347 348 349 348 348 345 342 340 342
348 348 349 347 346 346 345 345 346 347 347 348 347 345 345 346 347 346 345 345 345 345 346 345 345 346 346 343 342 345 346 347 348 348 348 349 349 350 349 345 342 344
348 348 349 348 346 345 345 345 346 346 347 346 345 344 345 346 346 346 346 346 346 346 347 347 346 345 344 343 344 345 345 346 347 349 350 350 348 349 349 346 341 340
347 347 347 347 346 345 345 345 347 346 346 346 345 345 345 345 345 346 345 345 345 345 347 347 345 345 345 345 346 345 344 346 347 348 349 349 347 347 347 346 341 339
346 347 347 346 346 346 345 346 348 346 344 345 345 345 345 345 345 346 345 344 345 346 346 346 345 346 347 346 346 346 345 346 348 347 346 346 346 346 345 344 343 342
345 346 346 347 347 347 346 348 348 346 343 344 345 344 345 346 346 345 345 345 345 346 346 346 345 345 346 346 346 345 345 347 347 346 345 347 347 346 344 343 344 345
346 345 345 346 347 347 347 348 348 345 344 344 344 344 345 345 346 346 345 345 345 345 346 346 344 343 344 344 344 344 345 347 347 345 346 347 348 347 345 343 345 347
346 345 345 345 346 347 347 347 346 345 344 344 345 346 346 346 346 345 345 344 344 344 344 344 344 343 342 342 342 343 345 346 346 346 347 347 347 348 348 346 347 347
346 347 347 346 347 347 347 347 346 345 344 344 346 346 345 346 346 345 345 344 344 343 343 343 343 343 342 342 342 342 344 346 347 346 346 348 349 349 349 349 349 348
346 347 348 346 346 346 346 347 347 346 345 345 345 345 345 346 345 345 344 344 344 344 344 344 343 343 343 342 342 342 344 347 347 346 346 347 348 348 348 348 348 348
346 346 347 346 345 345 344 345 348 348 346 345 345 345 346 347 346 346 346 345 345 345 345 345 344 344 344 344 345 345 345 346 347 347 346 346 346 346 346 346 346 347
347 346 346 345 344 344 344 344 346 347 346 346 346 346 346 347 346 347 346 345 346 346 346 346 346 346 345 345 346 346 345 346 346 347 347 347 347 346 345 344 344 345
346 346 346 345 343 342 342 342 344 345 345 345 345 345 345 346 346 346 346 346 346 346 347 346 346 345 345 346 346 346 346 346 346 347 347 347 347 346 344 342 340 339
345 345 345 345 344 342 342 342 344 345 344 344 343 344 345 346 346 346 346 347 347 346 346 346 345 344 345 345 345 345 346 347 347 347 347 347 346 346 345 344 340 336
341 342 344 344 344 345 346 345 346 346 345 344 343 344 344 344 344 344 344 345 345 344 345 344 344 344 344 345 345 344 346 347 347 347 347 347 347 346 346 346 344 341
Wind_Speed
26 26 27 28 26 26 28 30 30 29 27 26 23 23 25 25 24 23 23 24 25 23 19 19 21 20 18 19 19 18 16 14 13 13 12 12 13 13 11 10 9 9
26 26 26 27 27 27 29 30 29 30 30 28 26 23 22 24 26 24 23 25 26 25 22 21 24 24 21 20 20 18 17 16 14 13 11 11 12 12 12 11 10 10
25 26 26 27 28 28 29 29 28 28 30 29 26 25 22 22 26 25 24 26 27 26 25 24 26 26 23 21 19 18 17 18 17 14 13 13 13 12 12 11 10 11
25 25 26 27 28 28 27 27 26 26 28 28 28 28 26 24 25 26 24 25 27 26 26 26 25 24 23 21 19 18 18 19 19 16 15 15 15 14 13 12 11 11
25 24 25 27 28 28 27 26 25 24 25 27 28 28 28 26 25 25 24 24 26 25 25 26 25 22 22 22 21 19 18 19 20 18 18 18 17 16 14 12 12 12
24 24 24 26 27 28 28 26 25 26 26 27 29 29 28 29 27 25 26 26 25 24 23 24 25 23 22 22 21 21 19 18 18 18 19 20 20 17 14 12 12 13
22 23 23 24 24 25 27 26 26 28 29 27 30 31 29 28 29 27 26 25 25 25 25 23 24 25 22 20 21 21 20 19 17 17 18 20 22 20 17 15 14 14
21 21 22 22 21 23 25 26 26 28 29 28 28 30 29 28 27 27 26 25 26 28 27 24 24 25 23 20 20 21 21 20 19 19 21 21 21 21 20 19 18 17
23 22 23 23 21 22 24 25 26 27 28 28 27 28 29 29 27 26 27 26 26 28 28 24 22 24 24 21 20 20 21 21 19 19 22 22 21 21 21 21 21 20
22 23 24 23 21 22 25 26 27 27 27 28 28 29 30 30 28 27 26 26 27 28 28 25 23 23 24 23 22 21 21 21 20 19 22 23 22 21 21 20 21 20
21 23 23 23 23 24 26 28 27 26 24 24 27 29 29 29 29 27 26 26 27 28 29 29 27 24 23 23 23 22 21 21 21 20 21 23 22 22 23 22 21 20
20 22 22 23 24 25 28 28 27 26 24 24 27 29 28 27 27 26 26 26 26 25 27 28 27 24 23 24 23 23 23 21 20 20 21 21 21 21 22 22 21 20
21 22 21 22 22 24 27 28 29 29 26 25 28 29 28 27 26 25 25 25 25 25 25 25 24 23 23 23 23 23 23 20 18 19 21 21 21 21 22 23 22 21
21 22 22 21 21 23 25 26 29 29 26 27 29 28 26 25 24 25 24 23 24 25 25 24 24 25 24 22 22 22 20 19 19 20 20 21 22 22 23 24 24 24
18 18 18 18 19 22 24 24 25 24 23 27 28 25 24 23 22 23 23 22 23 25 25 24 24 25 26 24 23 23 21 19 21 23 22 22 22 21 22 24 25 24
15 15 15 16 17 20 22 22 22 21 22 26 27 24 23 23 21 21 22 22 23 25 26 24 22 24 26 26 23 23 23 22 23 23 23 23 23 22 22 22 21 20
12 13 15 16 16 17 19 20 21 21 22 25 27 25 23 23 22 21 21 22 23 24 25 24 23 24 27 27 25 23 24 25 25 23 23 25 25 25 23 21 19 19
11 12 13 14 14 15 17 19 19 18 19 22 25 24 21 22 22 22 21 21 21 22 23 24 24 24 24 24 24 25 26 26 24 23 25 26 26 24 23 21 20 21
12 12 12 12 13 15 18 19 16 12 14 19 21 21 21 21 20 20 21 21 20 21 21 22 23 23 23 23 24 24 25 26 25 24 24 24 24 24 23 22 22 23
13 14 14 15 17 17 18 19 16 11 15 18 18 19 21 21 20 20 21 21 21 21 21 21 21 21 22 24 25 23 23 23 24 24 24 23 23 24 24 23 23 23
11 12 13 15 17 17 17 18 16 13 15 18 17 17 18 19 20 22 23 22 21 21 21 22 23 23 22 23 24 23 23 24 24 23 24 25 25 24 22 22 22 22
12 12 12 13 15 16 15 15 15 14 15 16 15 16 19 19 20 20 21 21 21 20 21 22 23 23 22 21 22 22 23 25 26 25 25 26 27 25 24 23 23 24
14 13 14 14 15 15 14 13 14 15 17 17 16 18 21 21 20 20 20 22 22 21 21 22 21 21 21 21 22 23 24 25 26 26 26 27 28 28 28 28 27 27
14 14 14 16 17 16 15 13 13 14 15 16 18 19 20 19 20 21 21 22 23 23 23 23 23 23 24 24 24 23 22 23 25 26 27 28 29 30 30 30 30 30
10 12 14 16 16 16 15 14 14 15 15 16 17 17 18 19 20 21 21 21 22 22 23 23 23 24 26 26 26 25 23 22 24 27 28 29 29 30 30 30 30 30
7 9 12 14 14 14 15 15 16 17 18 18 18 18 18 20 21 22 22 22 23 23 23 23 23 24 25 26 26 26 25 25 26 28 28 28 29 30 30 30 30 29
Wind_Direction
204 204 205 207 207 204 198 198 202 202 204 205 206 211 211 211 209 204 208 214 207 198 198 201 199 202 205 200 203 208 211 216 209 207 227 239 233 229 228 233 241 249
205 204 206 208 207 204 200 202 205 207 208 207 206 208 210 215 215 208 208 214 210 200 195 200 204 204 204 206 210 213 211 212 213 209 220 242 241 228 227 234 238 245
206 205 205 207 206 204 204 205 208 211 212 210 208 206 207 216 217 209 208 215 214 206 201 204 208 208 209 212 216 217 212 214 219 213 213 233 244 233 224 230 238 246
210 207 206 207 208 207 207 207 209 213 214 211 208 207 207 214 216 209 208 215 215 210 208 212 213 209 210 214 217 217 216 220 224 220 216 225 235 234 227 229 237 245
212 210 206 206 209 210 210 212 213 214 213 210 208 208 209 211 212 207 205 210 213 209 211 217 216 211 211 213 216 217 218 224 225 222 218 220 227 234 232 230 235 243
215 213 210 209 211 213 213 214 216 213 209 207 206 205 207 209 210 206 205 207 208 205 207 216 217 214 214 215 217 218 217 220 226 228 226 223 226 232 233 231 238 245
215 214 213 213 213 212 211 212 212 209 206 205 205 203 205 211 213 210 207 206 206 205 204 210 215 213 212 215 218 219 218 215 219 230 237 235 232 233 232 229 232 239
214 214 213 214 212 209 207 208 208 205 205 206 206 204 203 206 210 209 206 204 207 210 207 206 214 212 207 211 217 221 220 215 215 224 233 237 239 239 238 235 234 235
218 218 216 215 215 213 208 208 207 204 204 205 206 208 204 201 205 206 205 205 206 211 208 205 214 216 207 206 214 221 223 219 217 225 233 238 240 243 243 241 240 236
223 221 219 216 214 215 212 208 206 205 206 204 203 206 202 199 205 206 205 207 207 209 206 201 211 218 211 206 209 216 223 222 218 223 237 244 244 245 246 243 240 236
223 221 222 219 213 214 212 206 203 203 206 207 207 205 198 197 205 205 203 206 207 210 208 203 208 215 214 211 210 213 222 226 222 220 235 248 249 247 246 243 239 235
221 218 219 220 216 214 212 207 203 203 206 210 213 209 199 197 202 202 203 206 206 208 209 207 209 213 215 215 214 215 221 226 227 224 230 242 249 248 245 243 239 234
218 215 216 223 222 216 212 209 207 207 208 209 211 210 203 197 199 202 203 206 207 205 205 206 209 214 220 220 216 218 222 225 230 230 230 233 239 244 246 244 241 233
221 219 220 226 224 214 211 211 211 210 208 205 205 209 208 200 199 203 203 205 210 207 204 205 207 212 220 221 216 216 221 227 230 230 230 232 234 239 245 247 247 240
224 224 224 222 217 214 213 216 219 216 207 203 203 208 209 201 201 206 204 204 210 209 206 206 207 211 216 218 215 212 214 223 230 230 231 235 236 238 242 247 250 245
213 214 215 210 209 213 215 218 222 218 207 204 205 208 207 203 204 207 204 205 209 210 209 208 209 214 216 215 216 215 215 220 227 231 235 238 240 243 244 247 252 253
207 206 206 207 210 212 214 220 221 216 211 210 209 207 204 203 207 207 204 206 210 211 211 211 213 218 219 217 217 220 222 225 229 232 237 239 244 251 250 247 253 259
215 219 215 214 217 215 218 228 227 215 210 209 207 205 205 206 209 209 207 207 211 213 214 215 216 219 222 225 225 224 225 229 232 234 239 244 248 251 250 246 246 248
207 218 218 214 215 215 218 227 231 213 197 199 201 201 205 208 209 209 208 208 214 219 219 221 221 220 225 231 234 233 230 231 232 232 238 245 248 248 249 248 245 244
198 202 206 208 211 212 214 220 225 209 188 192 200 201 204 211 214 213 210 210 214 219 220 222 223 223 226 231 235 239 237 236 236 235 235 239 243 247 251 251 247 246
205 201 202 210 215 216 215 214 216 210 193 189 192 195 203 215 220 216 215 213 213 216 219 223 224 224 226 229 234 239 240 240 241 241 239 240 243 248 254 256 256 254
212 210 209 214 220 222 219 210 205 208 208 202 193 192 201 212 215 214 217 218 217 219 223 226 228 226 223 227 236 239 238 240 243 242 241 243 244 246 249 252 256 258
218 215 213 216 220 222 221 216 209 207 209 210 207 205 209 213 213 213 218 221 222 224 225 227 231 230 224 227 237 238 235 238 239 237 240 246 249 251 252 251 250 250
223 220 220 222 224 224 223 222 221 217 213 211 212 213 216 219 219 219 221 224 226 226 226 229 232 232 229 230 234 235 237 241 240 239 245 252 255 259 260 259 257 252
214 221 224 225 225 228 229 227 225 225 224 221 219 217 217 218 220 223 226 229 231 232 233 235 237 237 236 236 237 237 238 241 242 245 251 253 255 258 260 261 262 261
201 216 218 220 223 228 233 231 227 228 229 230 228 226 225 223 223 225 227 230 232 233 235 238 241 242 241 242 244 245 244 242 243 246 251 254 256 258 259 259 261 263